User: anonymous   Login
Location: Unspecified
(0.0000°N, 0.0000°E)
Time: 11:04:32
(UTC+00:00)
Language:

STARLINK-34644 - Orbit

View from above orbital plane
View from above orbital plane
View from above satellite
View from above satellite

Ground track
Ground track

The orbit is defined by the following mean orbital elements,

1 64812U          26145.39444334 +.00000000 +00000-0 +35988-3 0 00002
2 64812  70.0002 301.1179 0002537 268.6530  91.4339 14.98343049    05
Epoch (UTC): 25 May 2026 09:27:59
Eccentricity: 0.0002537
inclination: 70.0002°
perigee height: 570 km
apogee height: 574 km
right ascension of ascending node: 301.1179°
argument of perigee: 268.6530°
revolutions per day: 14.98343049
mean anomaly at epoch: 91.4339°

The dashed part of the orbit path shows where the satellite is in the earth's shadow,  

DLR